Location: Prairie View Elementary School
(39.8322°N, 99.5698°W)
Time: 12:08:15
(UTC+00:00)

Cosmos 2333 Rocket - Pass Details

Date: 08 December 2019
Orbit: 837 x 864 km, 70.8° (Epoch: 27 January)

Event Time Altitude Azimuth Distance (km) Brightness Sun altitude
Rises 00:52:38 0° 239° (WSW) 3,410 6.8 -18.5°
Reaches altitude 10° 00:55:33 10° 253° (WSW) 2,483 5.9 -19.0°
Maximum altitude 01:00:06 24° 306° (NW) 1,711 4.2 -19.9°
Drops below altitude 10° 01:04:41 10° 359° (N) 2,506 4.5 -20.7°
Enters shadow 01:06:35 - 9° (N) 3,093 4.9 -21.1°
